DK8PN Weather Reports


time (UTC)temp
C
wind
direction
speed
KPH
gust
KPH
rain 1hr
cm
rain 24hr
cm
rain mn
cm
humidity
%
barometer
mb
20190418131636 20 103 11.3 22.5 0.00 0.00 0.00 36 1023.0
20190418130141 20 104 12.9 25.7 0.00 0.00 0.00 36 1023.0
20190418124609 20 80 9.7 19.3 0.00 0.00 0.00 37 1023.1
20190418123055 20 63 9.7 25.7 0.00 0.00 0.00 36 1023.2
20190418121552 19 136 11.3 22.5 0.00 0.00 0.00 36 1023.1
20190418120108 19 72 11.3 27.4 0.00 0.00 0.00 38 1023.3
20190418114530 18 105 12.9 25.7 0.00 0.00 0.00 37 1023.3
20190418113108 18 86 9.7 25.7 0.00 0.00 0.00 39 1023.4
20190418111525 18 84 14.5 24.1 0.00 0.00 0.00 39 1023.5
20190418110046 18 86 9.7 24.1 0.00 0.00 0.00 40 1023.6
20190418104546 18 74 11.3 20.9 0.00 0.03 0.00 41 1023.6
20190418103100 18 92 9.7 20.9 0.00 0.03 0.00 43 1023.8
20190418101528 17 109 11.3 22.5 0.00 0.03 0.00 45 1023.9
20190418100038 17 68 12.9 22.5 0.00 0.03 0.00 45 1023.9
20190418094522 16 111 9.7 24.1 0.00 0.03 0.00 47 1023.9
20190418093017 16 92 6.4 24.1 0.00 0.03 0.00 48 1024.0
20190418091651 16 113 9.7 25.7 0.00 0.03 0.00 49 1024.0
20190418090128 15 125 4.8 17.7 0.00 0.03 0.00 51 1024.1
20190418084726 15 107 6.4 19.3 0.00 0.03 0.00 52 1024.1
20190418083146 14 120 9.7 17.7 0.00 0.03 0.00 53 1024.1
20190418081623 14 102 9.7 19.3 0.00 0.03 0.00 54 1024.2
20190418080109 13 82 8.0 22.5 0.00 0.03 0.00 56 1024.3
20190418074556 13 108 9.7 22.5 0.00 0.03 0.00 57 1024.3
20190418073110 13 63 9.7 22.5 0.00 0.03 0.00 57 1024.2
20190418071557 12 61 4.8 16.1 0.00 0.03 0.00 58 1024.2
20190418070051 12 163 4.8 19.3 0.00 0.03 0.00 60 1024.2
20190418064601 12 47 1.6 17.7 0.00 0.03 0.00 60 1024.2
20190418063034 11 76 1.6 16.1 0.00 0.03 0.00 62 1024.3
20190418061542 11 57 9.7 16.1 0.00 0.03 0.00 63 1024.3
20190418060028 10 47 1.6 8.0 0.00 0.03 0.00 67 1024.1
20190418054518 9 13 0.0 4.8 0.00 0.05 0.00 69 1024.1
20190418053001 8 360 0.0 4.8 0.00 0.05 0.00 69 1024.0
20190418051820 8 328 0.0 4.8 0.00 0.05 0.00 69 1024.0
20190418050121 8 34 0.0 3.2 0.00 0.05 0.00 70 1023.9
20190418044706 8 34 0.0 3.2 0.00 0.05 0.00 69 1023.8
20190418043129 8 34 0.0 1.6 0.00 0.05 0.00 69 1023.7
20190418041659 8 24 0.0 4.8 0.00 0.05 0.00 68 1023.6
20190418040122 8 309 0.0 4.8 0.00 0.05 0.00 67 1023.6
20190418034621 8 334 0.0 1.6 0.00 0.05 0.00 68 1023.6
20190418033229 8 350 0.0 0.0 0.00 0.05 0.00 68 1023.4
20190418031633 8 44 0.0 0.0 0.00 0.05 0.00 67 1023.5
20190418030126 8 44 0.0 0.0 0.00 0.05 0.00 67 1023.6
20190418024556 8 44 0.0 0.0 0.00 0.05 0.00 65 1023.6
20190418023113 9 44 0.0 1.6 0.00 0.05 0.00 64 1023.5
20190418021622 8 317 0.0 4.8 0.00 0.05 0.00 63 1023.5
20190418020119 9 286 0.0 0.0 0.00 0.05 0.00 59 1023.4
20190418014552 10 286 0.0 0.0 0.00 0.05 0.00 58 1023.3
20190418013117 10 284 0.0 6.4 0.00 0.05 0.00 56 1023.2
20190418011543 10 282 0.0 4.8 0.00 0.05 0.00 55 1023.2
20190418010037 10 289 0.0 6.4 0.00 0.05 0.00 53 1023.2
20190418004528 10 65 0.0 0.0 0.00 0.05 0.00 51 1023.2
20190418003038 11 55 0.0 8.0 0.00 0.05 0.00 50 1023.3
20190418001552 11 71 1.6 8.0 0.00 0.05 0.00 49 1023.3
20190418000021 11 65 0.0 8.0 0.00 0.05 0.00 48 1023.3
20190417234523 11 77 1.6 12.9 0.00 0.05 0.00 46 1023.3
20190417233038 11 67 1.6 6.4 0.00 0.05 0.00 45 1023.3
20190417231510 12 51 1.6 12.9 0.00 0.05 0.00 44 1023.2
20190417230005 12 88 3.2 12.9 0.00 0.05 0.00 42 1023.3
20190417224505 12 92 4.8 14.5 0.00 0.05 0.00 41 1023.2
20190417223148 12 86 6.4 16.1 0.00 0.05 0.00 41 1023.2
20190417221713 12 126 4.8 17.7 0.00 0.05 0.00 39 1023.0
20190417220157 12 90 8.0 14.5 0.00 0.05 0.00 38 1022.9
20190417214634 12 117 4.8 14.5 0.00 0.05 0.05 39 1023.0
20190417213139 12 82 3.2 12.9 0.00 0.05 0.05 38 1022.9
20190417211641 12 78 4.8 14.5 0.00 0.05 0.05 39 1022.8
20190417210118 12 106 1.6 6.4 0.00 0.05 0.05 42 1022.8
20190417204729 12 103 0.0 6.4 0.00 0.05 0.05 43 1022.8
20190417203235 12 106 0.0 1.6 0.00 0.05 0.05 45 1022.8
20190417201632 12 103 0.0 6.4 0.00 0.05 0.05 46 1022.9
20190417200120 12 90 0.0 0.0 0.00 0.05 0.05 46 1022.8
20190417194652 12 85 0.0 0.0 0.00 0.05 0.05 47 1022.8
20190417193115 13 90 0.0 0.0 0.00 0.05 0.05 46 1022.7
20190417191659 13 90 0.0 0.0 0.00 0.05 0.05 45 1022.6
20190417190113 14 90 0.0 0.0 0.00 0.05 0.05 45 1022.3
20190417184648 15 90 0.0 0.0 0.00 0.05 0.05 43 1022.1
20190417183049 16 90 0.0 0.0 0.00 0.05 0.05 39 1021.9
20190417181619 16 90 0.0 0.0 0.00 0.05 0.05 36 1021.8
20190417180128 17 78 0.0 3.2 0.00 0.05 0.05 34 1021.6
20190417174629 17 59 0.0 4.8 0.00 0.05 0.05 34 1021.5
20190417173152 18 105 0.0 9.7 0.00 0.05 0.05 33 1021.4
20190417171605 18 122 4.8 14.5 0.00 0.05 0.05 32 1021.4
20190417170131 18 96 3.2 20.9 0.00 0.05 0.05 33 1021.3
20190417164616 18 100 11.3 19.3 0.00 0.05 0.05 32 1021.3
20190417163100 18 109 8.0 17.7 0.00 0.05 0.05 33 1021.3
20190417161641 18 49 4.8 14.5 0.00 0.05 0.05 35 1021.3
20190417160134 18 76 4.8 12.9 0.00 0.05 0.05 36 1021.3
20190417154556 18 116 1.6 6.4 0.00 0.05 0.05 38 1021.4
20190417153100 18 131 1.6 14.5 0.00 0.05 0.05 38 1021.4
20190417151545 19 76 6.4 16.1 0.00 0.05 0.05 37 1021.3
20190417150047 18 118 8.0 19.3 0.00 0.05 0.05 38 1021.3
20190417144617 19 113 6.4 19.3 0.00 0.05 0.05 38 1021.4
20190417143106 18 100 1.6 17.7 0.00 0.05 0.05 39 1021.5
20190417141551 18 75 9.7 17.7 0.00 0.05 0.05 39 1021.5
20190417140050 19 169 0.0 17.7 0.00 0.05 0.05 40 1021.5
20190417134545 18 117 1.6 19.3 0.00 0.05 0.05 40 1021.6
20190417133045 18 178 4.8 27.4 0.00 0.05 0.05 42 1021.7